Weather History for NW Arkansas Airport, AR

Change the Weather History Date:

Wednesday, October 19, 2011

  Actual Average Record
Temperature  
Mean Temperature 44 °F -  
Max Temperature 52 °F - - ()
Min Temperature 36 °F - - ()
Degree Days  
Heating Degree Days 22    
Moisture  
Dew Point 28 °F    
Average Humidity 59    
Maximum Humidity 82    
Minimum Humidity 35    
Precipitation  
Precipitation 0.00 in - - ()
Sea Level Pressure  
Sea Level Pressure 29.99 in    
Wind  
Wind Speed 9 mph (NW)    
Max Wind Speed 20 mph    
Max Gust Speed 31 mph    
Visibility 10 miles    
Events      
T = Trace of Precipitation, MM = Missing Value Source: NWS Daily Summary

Daily Weather History Graph

Daily Weather History Graph

Search for Another Location

Airport:

Trip Planner

Search our weather history database for the weather conditions in past years. The results will help you decide how hot, cold, wet, or windy it might be!

Date:

Astronomy

Oct. 19, 2011 Rise Set
Actual Time 7:27 AM CDT 6:36 PM CDT
Civil Twilight 7:01 AM CDT 7:02 PM CDT
Nautical Twilight 6:31 AM CDT 7:32 PM CDT
Astronomical Twilight 6:01 AM CDT 8:01 PM CDT
Moon No Moon Rise 1:54 PM CDT (10/19)
Length of Visible Light 12h 00m
Length of Day
11h 08m
Waning Gibbous, 54% of the Moon is Illuminated
Oct 19
Waning Gibbous
Oct 19
Last Quarter
Oct 26
New
Nov 2
First Quarter
Nov 10
Full

Hourly Weather History & Observations

Time (CDT) Temp. Windchill Dew Point Humidity Pressure Visibility Wind Dir Wind Speed Gust Speed Precip Events Conditions
12:53 AM 39.9 °F 35.8 °F 32.0 °F 73% 29.98 in 10.0 mi NNW 5.8 mph - N/A   Clear
1:53 AM 39.0 °F 35.7 °F 32.0 °F 76% 29.97 in 10.0 mi NW 4.6 mph - N/A   Clear
2:53 AM 37.9 °F 33.5 °F 30.9 °F 76% 29.96 in 10.0 mi NW 5.8 mph - N/A   Clear
3:53 AM 37.0 °F 32.4 °F 30.9 °F 79% 29.94 in 10.0 mi WNW 5.8 mph - N/A   Clear
4:53 AM 37.0 °F 31.0 °F 32.0 °F 82% 29.94 in 10.0 mi WNW 8.1 mph - N/A   Clear
5:53 AM 36.0 °F 28.5 °F 30.0 °F 79% 29.95 in 10.0 mi NW 10.4 mph - N/A   Clear
6:53 AM 36.0 °F 28.0 °F 28.9 °F 76% 29.96 in 10.0 mi NW 11.5 mph - N/A   Clear
7:53 AM 36.0 °F 29.0 °F 28.0 °F 73% 29.96 in 10.0 mi NW 9.2 mph - N/A   Clear
8:53 AM 37.9 °F 30.0 °F 28.9 °F 70% 29.99 in 10.0 mi NW 12.7 mph - N/A   Clear
11:53 AM 46.0 °F 38.5 °F 30.0 °F 54% 30.01 in 10.0 mi NNW 19.6 mph 25.3 mph N/A   Scattered Clouds
12:53 PM 48.0 °F - 30.0 °F 50% 30.01 in 10.0 mi NNW 15.0 mph - N/A   Scattered Clouds
1:53 PM 50.0 °F - 28.9 °F 44% 29.99 in 10.0 mi NNW 16.1 mph 25.3 mph N/A   Partly Cloudy
2:53 PM 51.1 °F - 27.0 °F 39% 29.98 in 10.0 mi NNW 19.6 mph 28.8 mph N/A   Clear
3:53 PM 51.1 °F - 24.1 °F 35% 29.98 in 10.0 mi NW 18.4 mph 29.9 mph N/A   Clear
4:53 PM 51.1 °F - 24.1 °F 35% 29.98 in 10.0 mi NNW 17.3 mph 31.1 mph N/A   Clear
5:53 PM 48.9 °F - 23.0 °F 36% 29.99 in 10.0 mi NNW 15.0 mph 20.7 mph N/A   Clear
6:53 PM 44.1 °F 40.8 °F 25.0 °F 47% 30.01 in 10.0 mi NNW 5.8 mph - N/A   Clear
7:53 PM 42.1 °F 38.4 °F 25.0 °F 51% 30.02 in 10.0 mi WNW 5.8 mph - N/A   Clear
8:53 PM 39.9 °F 36.7 °F 24.1 °F 53% 30.02 in 10.0 mi NW 4.6 mph - N/A   Clear
9:53 PM 39.0 °F 34.0 °F 25.0 °F 57% 30.01 in 10.0 mi NW 6.9 mph - N/A   Clear
10:53 PM 39.0 °F 33.4 °F 26.1 °F 60% 30.02 in 10.0 mi NNW 8.1 mph - N/A   Clear
11:53 PM 37.9 °F 32.7 °F 26.1 °F 62% 30.02 in 10.0 mi NW 6.9 mph - N/A   Clear